Flag for Eritrea Weather past 2 weeks in Asmara, Eritrea

Now
84 °F

Sunny.


Feels Like: 88 °F
Forecast: 60 / 72 °F
Wind: No wind

Location: Gizan


UV Index: 10 (Very high)

Visibility: 10 mi


Pressure: 29.80 "Hg

Humidity: 62%

Dew point: 70 °F

Location of AsmaraLocation

Historic Weather in Asmara

°F

Asmara temperature yesterday

Maximum temperature yesterday: 99 °F (at 11:00 AM)
Minimum temperature yesterday: 81 °F (at 6:00 AM)
Average temperature yesterday: 90 °F

Past Weeks' High & Low Weather Summary

 TemperatureHumidityPressure
High99 °F (Apr 17, 11:00 AM)84% (Apr 7, 4:00 AM)29.98 "Hg (Apr 7, 4:00 AM)
Low81 °F (Apr 5, 6:00 AM)41% (Apr 15, 1:00 PM)29.68 "Hg (Apr 17, 5:00 PM)
Average88 °F65%29.84 "Hg
* Reported Apr 3 6:00 AM — Apr 18 6:00 AM, Asmara, Weather by CustomWeather, © 2014

Note: Actual official high and low records may vary slightly from our data, if they occured in-between our weather recording intervals... More about our weather records

Advertising

Historic Weather Conditions — Data for Previous 24 hours

 ConditionsComfort  
Time TempWeatherWind HumidityBarometerVisibility
6:00 AM
Apr 18
82 °FSunny.No wind66%29.80 "Hg10 mi
5:00 AM81 °FClear.3 mph70%29.77 "Hg10 mi
4:00 AM84 °FClear.No wind62%29.74 "Hg10 mi
3:00 AM84 °FClear.3 mph62%29.74 "Hg10 mi
2:00 AM86 °FClear.No wind62%29.74 "Hg10 mi
1:00 AM86 °FClear.No wind62%29.74 "Hg10 mi
12:00 AM88 °FClear.No wind62%29.77 "Hg10 mi
11:00 PM
Apr 17
88 °FClear.3 mph62%29.77 "Hg10 mi
10:00 PM88 °FClear.3 mph66%29.77 "Hg10 mi
9:00 PM90 °FClear.No wind63%29.77 "Hg10 mi
8:00 PM90 °FClear.5 mph63%29.74 "Hg10 mi
7:00 PM91 °FPassing clouds.3 mph59%29.74 "HgN/A
6:00 PM91 °FSunny.7 mph59%29.71 "Hg10 mi
5:00 PM93 °FPassing clouds.12 mph56%29.68 "HgN/A
4:00 PM95 °FPassing clouds.13 mph53%29.71 "HgN/A
3:00 PM95 °FPassing clouds.15 mph56%29.71 "HgN/A
2:00 PM95 °FPassing clouds.17 mph56%29.74 "HgN/A
1:00 PM97 °FSunny.17 mph53%29.77 "Hg10 mi
12:00 PM97 °FSunny.15 mph50%29.80 "Hg10 mi
11:00 AM99 °FSunny.12 mph47%29.83 "Hg10 mi
10:00 AM97 °FSunny.12 mph50%29.83 "Hg10 mi
9:00 AM97 °FSunny.No wind50%29.83 "Hg10 mi
8:00 AM90 °FSunny.No wind63%29.80 "Hg10 mi
7:00 AM84 °FSunny.No wind74%29.80 "Hg10 mi
Weather by CustomWeather, © 2014

See weather overview